FW5765 Weather Reports


time (UTC)temp
C
wind
direction
speed
KPH
gust
KPH
rain 1hr
cm
rain 24hr
cm
rain mn
cm
humidity
%
barometer
mb
20260507144640 15 337 6.4 25.7 0.00 0.00 0.00 33 1013.5
20260507144144 15 322 12.9 25.7 0.00 0.00 0.00 34 1013.5
20260507143718 15 339 8.0 22.5 0.00 0.00 0.00 34 1013.5
20260507143221 14 321 16.1 22.5 0.00 0.00 0.00 35 1013.5
20260507142721 14 348 20.9 22.5 0.00 0.00 0.00 36 1013.5
20260507142241 14 334 12.9 20.9 0.00 0.00 0.00 36 1013.5
20260507141821 14 335 12.9 20.9 0.00 0.00 0.00 37 1013.5
20260507141337 14 327 12.9 20.9 0.00 0.00 0.00 37 1013.5
20260507140918 13 360 9.7 20.9 0.00 0.00 0.00 38 1013.9
20260507140438 13 325 14.5 22.5 0.00 0.00 0.00 40 1013.5
20260507140017 13 328 9.7 22.5 0.00 0.00 0.00 39 1013.5
20260507135542 13 328 14.5 20.9 0.00 0.00 0.00 42 1013.5
20260507135117 12 341 14.5 20.9 0.00 0.00 0.00 43 1013.5
20260507134640 12 315 16.1 22.5 0.00 0.00 0.00 44 1013.5
20260507134216 12 321 14.5 22.5 0.00 0.00 0.00 45 1013.5
20260507133718 11 327 17.7 20.9 0.00 0.00 0.00 47 1013.5
20260507133218 11 288 8.0 19.3 0.00 0.00 0.00 49 1013.5
20260507132718 11 309 12.9 19.3 0.00 0.00 0.00 50 1013.5
20260507132236 10 291 11.3 19.3 0.00 0.00 0.00 52 1013.2
20260507131815 10 299 16.1 19.3 0.00 0.00 0.00 54 1013.2
20260507131337 8 292 14.5 17.7 0.00 0.00 0.00 56 1013.5
20260507130916 8 282 11.3 16.1 0.00 0.00 0.00 61 1013.2
20260507130440 7 229 3.2 6.4 0.00 0.00 0.00 65 1013.2
20260507125944 6 227 4.8 4.8 0.00 0.00 0.00 69 1013.2
20260507125516 6 221 0.0 3.2 0.00 0.00 0.00 71 1013.2
20260507125116 5 220 1.6 3.2 0.00 0.00 0.00 73 1012.9
20260507124640 5 229 0.0 4.8 0.00 0.00 0.00 74 1012.9
20260507124140 4 229 0.0 4.8 0.00 0.00 0.00 75 1012.9
20260507123716 3 229 3.2 4.8 0.00 0.00 0.00 77 1012.9
20260507123242 3 224 0.0 6.4 0.00 0.00 0.00 77 1012.9
20260507122813 3 224 3.2 6.4 0.00 0.00 0.00 77 1012.9
20260507122341 2 224 1.6 6.4 0.00 0.00 0.00 77 1012.9
20260507121915 2 224 4.8 6.4 0.00 0.00 0.00 77 1012.5
20260507121442 2 225 4.8 6.4 0.00 0.00 0.00 77 1012.5
20260507121013 2 225 4.8 4.8 0.00 0.00 0.00 77 1012.5
20260507120544 2 225 3.2 4.8 0.00 0.00 0.00 77 1012.5
20260507120114 2 225 1.6 4.8 0.00 0.00 0.00 76 1012.5
20260507115637 2 225 3.2 4.8 0.00 0.00 0.00 75 1012.5
20260507115212 2 225 3.2 3.2 0.00 0.00 0.00 72 1012.5
20260507114742 3 229 3.2 3.2 0.00 0.00 0.00 70 1012.5
20260507114239 3 229 0.0 4.8 0.00 0.00 0.00 70 1012.5
20260507113839 3 229 1.6 4.8 0.00 0.00 0.00 69 1012.5
20260507113413 4 229 1.6 4.8 0.00 0.00 0.00 67 1012.5
20260507112938 5 225 3.2 11.3 0.00 0.00 0.00 66 1012.5
20260507112512 5 229 3.2 14.5 0.00 0.00 0.00 66 1012.5
20260507112039 5 244 8.0 14.5 0.00 0.00 0.00 67 1012.2
20260507111614 5 267 11.3 16.1 0.00 0.00 0.00 69 1012.2
20260507111113 4 266 6.4 16.1 0.00 0.00 0.00 71 1012.2
20260507110641 3 238 8.0 14.5 0.00 0.00 0.00 72 1012.2
20260507110248 3 242 4.8 9.7 0.00 0.00 0.00 72 1012.2
20260507105813 3 232 6.4 12.9 0.00 0.00 0.00 72 1012.2
20260507105338 3 238 6.4 12.9 0.00 0.00 0.00 72 1012.2
20260507104913 2 236 6.4 12.9 0.00 0.00 0.00 73 1012.2
20260507104414 2 237 4.8 11.3 0.00 0.00 0.00 73 1012.2
20260507104014 2 244 8.0 11.3 0.00 0.00 0.00 72 1012.2
20260507103541 2 261 11.3 12.9 0.00 0.00 0.00 72 1012.2
20260507103114 2 263 6.4 12.9 0.00 0.00 0.00 72 1012.2
20260507102642 2 256 6.4 12.9 0.00 0.00 0.00 71 1012.5
20260507102212 2 264 6.4 14.5 0.00 0.00 0.00 71 1012.5
20260507101738 2 253 6.4 14.5 0.00 0.00 0.00 71 1012.5
20260507101311 2 260 4.8 12.9 0.00 0.00 0.00 71 1012.5
20260507100841 2 267 9.7 16.1 0.00 0.00 0.00 72 1012.5
20260507100415 2 277 14.5 16.1 0.00 0.00 0.00 72 1012.5
20260507095942 2 243 12.9 14.5 0.00 0.00 0.00 73 1012.5
20260507095412 2 248 6.4 14.5 0.00 0.00 0.00 73 1012.5
20260507094942 2 246 11.3 14.5 0.00 0.00 0.00 74 1012.9
20260507094437 2 259 6.4 14.5 0.00 0.00 0.00 74 1012.9
20260507094014 2 239 8.0 12.9 0.00 0.00 0.00 75 1012.5
20260507093512 2 253 11.3 12.9 0.00 0.00 0.00 75 1012.5
20260507093013 1 243 12.9 12.9 0.00 0.00 0.00 74 1012.9
20260507092539 2 246 6.4 12.9 0.00 0.00 0.00 74 1012.9
20260507092114 2 278 11.3 12.9 0.00 0.00 0.00 74 1012.9
20260507091637 2 254 4.8 11.3 0.00 0.00 0.00 73 1012.9
20260507091212 2 263 6.4 11.3 0.00 0.00 0.00 73 1012.9
20260507090738 2 282 6.4 12.9 0.00 0.00 0.00 72 1012.9
20260507090313 2 276 6.4 12.9 0.00 0.00 0.00 72 1012.9
20260507085837 2 296 6.4 12.9 0.00 0.00 0.00 71 1013.2
20260507085411 3 284 9.7 14.5 0.00 0.00 0.00 71 1012.9
20260507084939 3 269 11.3 17.7 0.00 0.00 0.00 71 1013.2
20260507084511 3 263 9.7 17.7 0.00 0.00 0.00 71 1012.9
20260507084037 3 265 12.9 17.7 0.00 0.00 0.00 72 1012.9
20260507083614 3 254 17.7 17.7 0.00 0.00 0.00 73 1012.9
20260507083141 2 242 12.9 17.7 0.00 0.00 0.00 74 1012.9
20260507082712 2 232 9.7 17.7 0.00 0.00 0.00 75 1013.2
20260507082242 2 243 12.9 17.7 0.00 0.00 0.00 76 1013.2
20260507081810 2 240 12.9 17.7 0.00 0.00 0.00 76 1013.2
20260507081337 2 239 9.7 16.1 0.00 0.00 0.00 77 1013.2
20260507080914 2 240 6.4 17.7 0.00 0.00 0.00 76 1013.2
20260507080443 2 251 12.9 17.7 0.00 0.00 0.00 76 1013.2
20260507080014 2 254 11.3 16.1 0.00 0.00 0.00 76 1013.2
20260507075540 2 247 12.9 17.7 0.00 0.00 0.00 76 1013.5
20260507075112 2 236 14.5 16.1 0.00 0.00 0.00 77 1013.5
20260507074642 2 250 8.0 16.1 0.00 0.00 0.00 77 1013.5
20260507074211 2 257 11.3 16.1 0.00 0.00 0.00 77 1013.5
20260507073739 2 241 8.0 16.1 0.00 0.00 0.00 77 1013.9
20260507073314 2 224 9.7 14.5 0.00 0.00 0.00 78 1013.9
20260507072842 2 238 4.8 12.9 0.00 0.00 0.00 77 1013.9
20260507072412 2 234 8.0 14.5 0.00 0.00 0.00 77 1013.9
20260507071939 2 240 6.4 14.5 0.00 0.00 0.00 76 1013.9
20260507071510 2 238 6.4 17.7 0.00 0.00 0.00 75 1013.9
20260507070942 3 240 9.7 17.7 0.00 0.00 0.00 74 1013.9
20260507070413 3 234 8.0 17.7 0.00 0.00 0.00 74 1013.9
20260507065913 3 250 11.3 16.1 0.00 0.00 0.00 74 1014.2
20260507065438 3 254 8.0 19.3 0.00 0.00 0.00 74 1014.2
20260507065036 3 253 8.0 19.3 0.00 0.00 0.00 74 1014.2
20260507064612 3 254 14.5 16.1 0.00 0.00 0.00 74 1014.2
20260507064117 3 226 9.7 16.1 0.00 0.00 0.00 73 1014.2
20260507063712 3 229 14.5 16.1 0.00 0.00 0.00 74 1014.2
20260507063242 3 239 12.9 16.1 0.00 0.00 0.00 73 1014.2
20260507062737 3 227 8.0 14.5 0.00 0.00 0.00 72 1014.2
20260507062314 3 229 9.7 14.5 0.00 0.00 0.00 72 1014.2
20260507061840 3 216 6.4 16.1 0.00 0.00 0.00 71 1014.2
20260507061414 3 222 4.8 16.1 0.00 0.00 0.00 71 1014.6
20260507060938 3 240 12.9 14.5 0.00 0.00 0.00 72 1014.6
20260507060514 3 240 6.4 12.9 0.00 0.00 0.00 72 1014.6
20260507060012 3 221 6.4 14.5 0.00 0.00 0.00 72 1014.6
20260507055512 3 230 11.3 12.9 0.00 0.00 0.00 71 1014.6
20260507055036 3 227 6.4 9.7 0.00 0.00 0.00 70 1014.6
20260507054612 3 221 6.4 9.7 0.00 0.00 0.00 70 1014.6
20260507054112 3 231 4.8 9.7 0.00 0.00 0.00 69 1014.9
20260507053711 3 210 4.8 11.3 0.00 0.00 0.00 68 1014.9
20260507053242 3 203 3.2 11.3 0.00 0.00 0.00 68 1014.9
20260507052742 3 198 6.4 9.7 0.00 0.00 0.00 68 1014.9
20260507052337 3 193 6.4 11.3 0.00 0.00 0.00 67 1014.9
20260507051913 4 211 3.2 12.9 0.00 0.00 0.00 67 1014.9
20260507051412 4 200 6.4 12.9 0.00 0.00 0.00 67 1014.9
20260507050911 4 200 3.2 9.7 0.00 0.00 0.00 66 1015.2
20260507050440 4 209 8.0 12.9 0.00 0.00 0.00 66 1015.2
20260507045937 4 198 6.4 12.9 0.00 0.00 0.00 66 1015.2
20260507045513 4 206 9.7 11.3 0.00 0.00 0.00 65 1015.2
20260507044930 4 204 4.8 11.3 0.00 0.00 0.00 65 1015.2
20260507044431 4 199 4.8 9.7 0.00 0.00 0.00 65 1015.2
20260507043942 4 225 6.4 11.3 0.00 0.00 0.00 65 1015.6
20260507043533 5 193 6.4 11.3 0.00 0.00 0.00 64 1015.6
20260507043029 5 191 8.0 11.3 0.00 0.00 0.00 64 1015.6
20260507042529 5 202 4.8 11.3 0.00 0.00 0.00 64 1015.6
20260507042035 5 184 4.8 12.9 0.00 0.00 0.00 63 1015.6
20260507041630 5 188 9.7 14.5 0.00 0.00 0.00 62 1015.6
20260507041129 5 203 4.8 14.5 0.00 0.00 0.00 62 1015.9
20260507040628 5 211 12.9 14.5 0.00 0.00 0.00 61 1015.9
20260507040128 5 195 4.8 14.5 0.00 0.00 0.00 60 1015.9
20260507035729 5 194 11.3 16.1 0.00 0.00 0.00 59 1015.9
20260507035228 5 218 11.3 16.1 0.00 0.00 0.00 58 1015.9
20260507034827 5 193 9.7 14.5 0.00 0.00 0.00 57 1015.9
20260507034328 5 205 9.7 16.1 0.00 0.00 0.00 56 1016.3
20260507033827 5 207 12.9 16.1 0.00 0.00 0.00 55 1015.9
20260507033340 5 189 9.7 16.1 0.00 0.00 0.00 54 1015.9
20260507032927 5 196 9.7 16.1 0.00 0.00 0.00 54 1016.3
20260507032426 5 192 11.3 12.9 0.00 0.00 0.00 53 1016.3
20260507031928 5 193 3.2 12.9 0.00 0.00 0.00 52 1016.3
20260507031428 5 193 4.8 9.7 0.00 0.00 0.00 51 1016.3
20260507030927 5 193 4.8 9.7 0.00 0.00 0.00 51 1016.3
20260507030426 6 194 4.8 11.3 0.00 0.00 0.00 50 1016.3
20260507030029 6 195 6.4 11.3 0.00 0.00 0.00 49 1016.3
20260507025526 6 200 1.6 6.4 0.00 0.00 0.00 47 1016.3
20260507025127 6 209 3.2 8.0 0.00 0.00 0.00 47 1016.3
20260507024641 7 207 4.8 8.0 0.00 0.00 0.00 46 1016.3
20260507024225 7 221 3.2 8.0 0.00 0.00 0.00 45 1016.3
20260507023739 7 198 4.8 6.4 0.00 0.00 0.00 44 1016.3
20260507023325 7 205 4.8 6.4 0.00 0.00 0.00 43 1016.3
20260507022825 7 206 0.0 6.4 0.00 0.00 0.00 43 1016.3
20260507022326 7 207 3.2 8.0 0.00 0.00 0.00 42 1016.3
20260507021839 8 209 3.2 9.7 0.00 0.00 0.00 42 1016.6
20260507021424 8 210 4.8 9.7 0.00 0.00 0.00 41 1016.6
20260507020939 8 219 6.4 11.3 0.00 0.00 0.00 40 1016.6
20260507020524 8 217 6.4 12.9 0.00 0.00 0.00 39 1016.6
20260507020027 9 227 11.3 19.3 0.00 0.00 0.00 38 1016.6
20260507015524 9 223 8.0 19.3 0.00 0.00 0.00 37 1016.6
20260507015040 10 222 8.0 12.9 0.00 0.00 0.00 36 1016.6
20260507014626 10 227 6.4 16.1 0.00 0.00 0.00 35 1016.6
20260507014139 10 224 8.0 16.1 0.00 0.00 0.00 35 1016.6
20260507013722 10 242 12.9 19.3 0.00 0.00 0.00 34 1016.6
20260507013239 11 229 8.0 19.3 0.00 0.00 0.00 33 1016.6
20260507012823 11 227 12.9 19.3 0.00 0.00 0.00 32 1016.9
20260507012342 11 230 11.3 20.9 0.00 0.00 0.00 32 1016.9
20260507011924 11 227 9.7 20.9 0.00 0.00 0.00 31 1016.9
20260507011438 11 240 12.9 20.9 0.00 0.00 0.00 31 1016.9
20260507011023 11 280 11.3 25.7 0.00 0.00 0.00 31 1016.9
20260507010544 11 237 11.3 25.7 0.00 0.00 0.00 30 1016.9
20260507010125 11 234 11.3 22.5 0.00 0.00 0.00 31 1016.9
20260507005723 11 248 14.5 22.5 0.00 0.00 0.00 30 1016.9
20260507005222 11 254 19.3 22.5 0.00 0.00 0.00 29 1016.9
20260507004821 11 240 12.9 25.7 0.00 0.00 0.00 29 1016.9
20260507004321 12 251 19.3 27.4 0.00 0.00 0.00 29 1017.3
20260507003823 12 266 19.3 27.4 0.00 0.00 0.00 27 1017.3
20260507003342 12 286 24.1 27.4 0.00 0.00 0.00 28 1017.3
20260507002920 12 233 12.9 27.4 0.00 0.00 0.00 27 1017.3
20260507002423 12 236 22.5 30.6 0.00 0.00 0.00 27 1017.3
20260507002021 12 257 17.7 30.6 0.00 0.00 0.00 27 1017.3
20260507001523 12 251 16.1 27.4 0.00 0.00 0.00 27 1017.3
20260507001023 12 256 20.9 30.6 0.00 0.00 0.00 25 1017.3
20260507000522 12 252 16.1 30.6 0.00 0.00 0.00 27 1017.3
20260507000120 12 221 8.0 20.9 0.00 0.00 0.00 27 1017.3
20260506235619 12 244 11.3 33.8 0.00 0.00 0.00 27 1017.6
20260506235120 12 230 12.9 33.8 0.00 0.00 0.00 27 1017.3
20260506234641 12 274 24.1 29.0 0.00 0.00 0.00 26 1017.6
20260506234139 12 254 19.3 27.4 0.00 0.00 0.00 27 1017.6
20260506233721 12 290 19.3 24.1 0.00 0.00 0.00 26 1017.6
20260506233318 12 270 12.9 20.9 0.00 0.00 0.00 25 1017.6
20260506232820 12 248 11.3 30.6 0.00 0.00 0.00 27 1017.6
20260506232319 12 240 9.7 32.2 0.00 0.00 0.00 26 1017.6
20260506231837 12 243 14.5 32.2 0.00 0.00 0.00 26 1017.9
20260506231341 12 242 17.7 32.2 0.00 0.00 0.00 25 1017.9
20260506230940 12 252 22.5 32.2 0.00 0.00 0.00 25 1017.9
20260506230519 12 247 17.7 30.6 0.00 0.00 0.00 25 1017.9
20260506230019 12 257 27.4 29.0 0.00 0.00 0.00 25 1017.9
20260506225618 12 279 17.7 33.8 0.00 0.00 0.00 25 1017.9
20260506225137 12 306 17.7 38.6 0.00 0.00 0.00 25 1018.3
20260506224717 12 283 19.3 38.6 0.00 0.00 0.00 24 1018.3
20260506224239 12 259 20.9 24.1 0.00 0.00 0.00 26 1017.9
20260506223816 12 265 14.5 30.6 0.00 0.00 0.00 27 1018.3
20260506223342 11 261 19.3 38.6 0.00 0.00 0.00 26 1018.6
20260506222917 12 243 24.1 38.6 0.00 0.00 0.00 26 1018.6
20260506222436 12 237 25.7 25.7 0.00 0.00 0.00 27 1018.6
20260506222017 11 259 12.9 25.7 0.00 0.00 0.00 26 1018.6
20260506221520 12 260 16.1 32.2 0.00 0.00 0.00 26 1018.6
20260506221116 12 228 16.1 32.2 0.00 0.00 0.00 25 1018.6
20260506220643 12 288 25.7 29.0 0.00 0.00 0.00 27 1018.6
20260506220215 12 246 16.1 33.8 0.00 0.00 0.00 25 1018.6
20260506215715 12 249 19.3 33.8 0.00 0.00 0.00 25 1018.6
20260506215315 12 238 24.1 32.2 0.00 0.00 0.00 25 1018.6
20260506214839 12 247 24.1 32.2 0.00 0.00 0.00 25 1018.6
20260506214415 12 269 24.1 33.8 0.00 0.00 0.00 26 1019.0
20260506213945 12 301 11.3 37.0 0.00 0.00 0.00 24 1019.0
20260506213514 12 271 14.5 37.0 0.00 0.00 0.00 25 1019.3
20260506213043 12 259 19.3 30.6 0.00 0.00 0.00 25 1019.0
20260506212614 12 270 9.7 30.6 0.00 0.00 0.00 24 1019.3
20260506212138 12 252 16.1 30.6 0.00 0.00 0.00 25 1019.3
20260506211716 12 254 22.5 29.0 0.00 0.00 0.00 26 1019.3
20260506211241 12 271 14.5 27.4 0.00 0.00 0.00 25 1019.3
20260506210816 12 257 16.1 30.6 0.00 0.00 0.00 24 1019.6
20260506210338 12 263 17.7 30.6 0.00 0.00 0.00 26 1019.6
20260506205913 12 250 24.1 30.6 0.00 0.00 0.00 25 1019.6
20260506205443 12 240 24.1 33.8 0.00 0.00 0.00 26 1019.6
20260506205013 12 249 19.3 33.8 0.00 0.00 0.00 27 1019.6
20260506204542 11 212 4.8 25.7 0.00 0.00 0.00 27 1020.0
20260506204115 11 290 17.7 29.0 0.00 0.00 0.00 26 1020.0
20260506203643 11 267 16.1 33.8 0.00 0.00 0.00 26 1020.0
20260506203213 12 246 29.0 33.8 0.00 0.00 0.00 26 1020.3
20260506202739 12 298 19.3 30.6 0.00 0.00 0.00 26 1020.3
20260506202311 11 297 16.1 25.7 0.00 0.00 0.00 28 1020.3
20260506201837 11 278 4.8 32.2 0.00 0.00 0.00 25 1020.3
20260506201341 11 231 19.3 32.2 0.00 0.00 0.00 27 1020.7
20260506200941 10 261 24.1 27.4 0.00 0.00 0.00 28 1020.3
20260506200514 10 261 17.7 24.1 0.00 0.00 0.00 28 1020.7
20260506200038 11 292 16.1 33.8 0.00 0.00 0.00 27 1020.7
20260506195613 11 293 12.9 33.8 0.00 0.00 0.00 27 1020.7
20260506195141 10 269 22.5 29.0 0.00 0.00 0.00 29 1020.7
20260506194713 11 244 8.0 27.4 0.00 0.00 0.00 26 1020.7
20260506194240 11 304 16.1 27.4 0.00 0.00 0.00 28 1021.0
20260506193811 11 295 24.1 33.8 0.00 0.00 0.00 28 1020.7
20260506193344 10 250 20.9 33.8 0.00 0.00 0.00 28 1021.0
20260506192911 10 246 16.1 24.1 0.00 0.00 0.00 29 1021.0
20260506192440 10 319 8.0 29.0 0.00 0.00 0.00 28 1021.0
20260506192014 10 254 11.3 32.2 0.00 0.00 0.00 28 1021.0
20260506191512 10 307 11.3 32.2 0.00 0.00 0.00 29 1021.0
20260506191115 10 279 11.3 19.3 0.00 0.00 0.00 30 1021.3
20260506190646 10 196 8.0 24.1 0.00 0.00 0.00 31 1021.3
20260506190215 10 218 17.7 25.7 0.00 0.00 0.00 31 1021.3
20260506185742 10 218 17.7 25.7 0.00 0.00 0.00 31 1021.3
20260506185310 10 311 9.7 27.4 0.00 0.00 0.00 31 1021.3
20260506184837 9 199 8.0 27.4 0.00 0.00 0.00 33 1021.7
20260506184412 9 279 17.7 27.4 0.00 0.00 0.00 33 1021.7
20260506183840 9 250 20.9 24.1 0.00 0.00 0.00 34 1021.7
20260506183412 9 324 9.7 20.9 0.00 0.00 0.00 33 1021.7
20260506182914 8 277 3.2 27.4 0.00 0.00 0.00 35 1022.0
20260506182512 8 244 16.1 27.4 0.00 0.00 0.00 36 1022.0
20260506182037 8 286 11.3 30.6 0.00 0.00 0.00 34 1022.0
20260506181613 8 319 16.1 30.6 0.00 0.00 0.00 34 1022.0
20260506181141 8 274 14.5 29.0 0.00 0.00 0.00 35 1022.0
20260506180710 8 290 16.1 24.1 0.00 0.00 0.00 36 1022.0
20260506180241 8 234 8.0 19.3 0.00 0.00 0.00 37 1022.4
20260506175812 8 267 6.4 24.1 0.00 0.00 0.00 36 1022.0
20260506175342 8 304 14.5 24.1 0.00 0.00 0.00 37 1022.4
20260506174911 8 275 17.7 29.0 0.00 0.00 0.00 36 1022.4
20260506174415 8 278 22.5 29.0 0.00 0.00 0.00 36 1022.7
20260506174014 7 252 20.9 25.7 0.00 0.00 0.00 38 1022.7
20260506173538 7 316 8.0 24.1 0.00 0.00 0.00 42 1022.7
20260506173113 7 294 8.0 24.1 0.00 0.00 0.00 42 1022.7
20260506172623 7 292 20.9 27.4 0.00 0.00 0.00 40 1022.7
20260506172123 7 304 16.1 27.4 0.00 0.00 0.00 41 1022.7
20260506171646 7 294 19.3 25.7 0.00 0.00 0.00 43 1022.7
20260506171137 7 273 11.3 17.7 0.00 0.00 0.00 42 1022.7
20260506170721 7 301 8.0 25.7 0.00 0.00 0.00 43 1022.7
20260506170243 7 274 12.9 25.7 0.00 0.00 0.00 43 1022.7
20260506165823 6 281 20.9 22.5 0.00 0.00 0.00 42 1022.7
20260506165340 6 255 11.3 22.5 0.00 0.00 0.00 43 1022.7
20260506164920 6 284 11.3 22.5 0.00 0.00 0.00 42 1022.7
20260506164425 6 292 20.9 24.1 0.00 0.00 0.00 41 1023.0
20260506163925 6 271 9.7 24.1 0.00 0.00 0.00 44 1023.0
20260506163443 6 250 11.3 20.9 0.00 0.00 0.00 44 1022.7
20260506163021 6 5 8.0 20.9 0.00 0.00 0.00 44 1022.7
20260506162521 6 311 8.0 22.5 0.00 0.00 0.00 45 1023.0
20260506162121 6 294 12.9 22.5 0.00 0.00 0.00 43 1023.0
20260506161642 6 325 6.4 19.3 0.00 0.00 0.00 45 1023.0
20260506161137 5 360 9.7 19.3 0.00 0.00 0.00 45 1023.0
20260506160719 5 298 3.2 20.9 0.00 0.00 0.00 46 1023.0
20260506160220 5 285 11.3 22.5 0.00 0.00 0.00 46 1023.0
20260506155719 5 261 12.9 22.5 0.00 0.00 0.00 48 1023.0
20260506155235 5 290 4.8 20.9 0.00 0.00 0.00 47 1023.0
20260506154824 5 257 11.3 22.5 0.00 0.00 0.00 48 1023.0
20260506154320 5 255 12.9 22.5 0.00 0.00 0.00 50 1023.0
20260506153819 4 293 14.5 20.9 0.00 0.00 0.00 49 1023.0
20260506153336 5 279 14.5 20.9 0.00 0.00 0.00 48 1023.0
20260506152919 5 271 6.4 22.5 0.00 0.00 0.00 50 1023.0
20260506152441 5 310 14.5 22.5 0.00 0.00 0.00 48 1023.0
20260506152020 5 11 12.9 22.5 0.00 0.00 0.00 49 1023.0
20260506151517 5 348 12.9 22.5 0.00 0.00 0.00 49 1023.0
20260506151119 5 317 20.9 22.5 0.00 0.00 0.00 50 1023.4
20260506150618 5 289 4.8 17.7 0.00 0.00 0.00 53 1023.4
20260506150119 5 328 6.4 17.7 0.00 0.00 0.00 52 1023.4
20260506145617 4 275 6.4 14.5 0.00 0.00 0.00 53 1023.4
20260506145142 4 339 6.4 14.5 0.00 0.00 0.00 54 1023.4
20260506144717 4 265 4.8 14.5 0.00 0.00 0.00 54 1023.4